TimeCDT,TemperatureF,Dew PointF,Humidity,Sea Level PressureIn,VisibilityMPH,Wind Direction,Wind SpeedMPH,Gust SpeedMPH,PrecipitationIn,Events,Conditions,WindDirDegrees,DateUTC
4:53 AM,16.0,6.1,65,30.08,10.0,WNW,15.0,-,N/A,,Clear,300,2013-03-19 09:53:00
5:53 AM,15.1,5.0,64,30.09,10.0,WNW,18.4,25.3,N/A,,Clear,300,2013-03-19 10:53:00
6:53 AM,14.0,5.0,67,30.12,10.0,NW,11.5,-,N/A,,Clear,310,2013-03-19 11:53:00
7:53 AM,14.0,6.1,71,30.14,10.0,WNW,9.2,-,N/A,,Clear,300,2013-03-19 12:53:00
8:53 AM,16.0,6.1,65,30.18,10.0,NW,15.0,-,N/A,,Clear,310,2013-03-19 13:53:00
9:53 AM,18.0,6.1,60,30.19,10.0,NW,16.1,-,N/A,,Clear,310,2013-03-19 14:53:00
10:53 AM,19.9,8.1,60,30.21,10.0,NW,11.5,-,N/A,,Clear,310,2013-03-19 15:53:00
11:53 AM,21.9,9.0,58,30.22,10.0,West,9.2,-,N/A,,Clear,260,2013-03-19 16:53:00
12:53 PM,24.1,12.0,60,30.22,10.0,West,9.2,-,N/A,,Mostly Cloudy,280,2013-03-19 17:53:00
1:53 PM,26.1,14.0,60,30.22,10.0,West,10.4,-,N/A,,Overcast,260,2013-03-19 18:53:00
2:53 PM,27.0,17.1,66,30.22,10.0,West,13.8,-,N/A,,Overcast,260,2013-03-19 19:53:00
3:53 PM,30.0,17.1,59,30.21,10.0,WNW,10.4,-,N/A,,Clear,300,2013-03-19 20:53:00
4:53 PM,32.0,19.0,59,30.21,10.0,West,12.7,18.4,N/A,,Clear,270,2013-03-19 21:53:00
5:53 PM,33.1,19.0,56,30.20,10.0,WNW,9.2,-,N/A,,Clear,290,2013-03-19 22:53:00
6:53 PM,32.0,19.9,61,30.20,10.0,NW,11.5,-,N/A,,Clear,320,2013-03-19 23:53:00
7:53 PM,30.0,21.0,69,30.22,10.0,NNW,15.0,-,N/A,,Clear,340,2013-03-20 00:53:00
8:53 PM,28.0,19.0,69,30.23,10.0,NNW,10.4,-,N/A,,Scattered Clouds,330,2013-03-20 01:53:00
9:53 PM,26.1,21.0,81,30.26,10.0,North,17.3,-,N/A,,Overcast,350,2013-03-20 02:53:00
10:32 PM,24.8,17.6,74,30.23,10.0,North,16.1,-,N/A,,Mostly Cloudy,350,2013-03-20 03:32:00
10:53 PM,21.9,15.1,75,30.28,10.0,North,21.9,-,N/A,,Mostly Cloudy,360,2013-03-20 03:53:00
11:07 PM,21.2,14.0,74,30.25,10.0,North,16.1,28.8,N/A,,Partly Cloudy,350,2013-03-20 04:07:00
11:53 PM,19.9,12.9,74,30.30,10.0,North,18.4,21.9,N/A,,Mostly Cloudy,350,2013-03-20 04:53:00